Flag for U.S.A. Weather past 2 weeks in Los Angeles, California, U.S.A.

Now
67 °F

Clear.


Feels Like: 67 °F
Forecast: 66 / 87 °F
Wind: No wind

Location: Los Angeles / USC Campus Downtown

Current Time: Aug 30, 2014 at 4:22:14 AM

Latest Report: Aug 30, 2014 at 3:47 AM


Visibility: 9 mi

Pressure: 29.80 "Hg

Humidity: 85%

Dew point: 62 °F

Location of Los AngelesLocation

Historic Weather in Los Angeles — Graph

°F

Los Angeles temperature yesterday

Maximum temperature yesterday: 89 °F (at 11:47 AM)
Minimum temperature yesterday: 66 °F (at 4:47 AM)
Average temperature yesterday: 74 °F

Past Weeks' High & Low Weather Summary

 TemperatureHumidityPressure
High91 °F (Aug 27, 1:47 PM)91% (Aug 15, 2:47 AM)30.01 "Hg (Aug 15, 2:47 AM)
Low63 °F (Aug 15, 5:47 AM)22% (Aug 28, 7:47 PM)29.78 "Hg (Aug 18, 3:47 PM)
Average74 °F64%29.90 "Hg
* Reported Aug 15 2:47 AM — Aug 30 2:47 AM, Los Angeles, Weather by CustomWeather, © 2014

Note: Actual official high and low records may vary slightly from our data, if they occured in-between our weather recording intervals... More about our weather records

Advertising

Los Angeles weather history for previous 24 hours

 ConditionsComfort  
Time TempWeatherWind HumidityBarometerVisibility
2:47 AM
Aug 30
67 °FClear.No wind85%29.80 "Hg9 mi
1:47 AM67 °FClear.No wind87%29.80 "Hg9 mi
12:47 AM68 °FClear.No wind82%29.81 "Hg10 mi
11:47 PM
Aug 29
68 °FClear.No wind78%29.81 "Hg10 mi
10:47 PM70 °FClear.No wind76%29.81 "Hg10 mi
9:47 PM70 °FClear.No wind76%29.82 "Hg10 mi
8:47 PM71 °FClear.No wind73%29.81 "Hg10 mi
7:47 PM73 °FSunny.No wind62%29.80 "Hg10 mi
6:47 PM76 °FSunny.6 mph50%29.78 "Hg10 mi
5:47 PM77 °FSunny.3 mph54%29.79 "Hg10 mi
4:47 PM79 °FSunny.8 mph56%29.79 "Hg10 mi
3:47 PM82 °FSunny.6 mph49%29.80 "Hg10 mi
2:47 PM83 °FSunny.3 mph50%29.81 "Hg10 mi
1:47 PM84 °FSunny.5 mph49%29.82 "Hg10 mi
11:47 AM89 °FSunny.3 mph35%29.84 "Hg10 mi
10:47 AM84 °FSunny.3 mph40%29.86 "Hg10 mi
9:47 AM78 °FSunny.No wind58%29.87 "Hg10 mi
8:47 AM74 °FSunny.No wind67%29.87 "Hg9 mi
7:47 AM70 °FSunny.No wind79%29.87 "Hg8 mi
6:47 AM67 °FClear.No wind81%29.87 "Hg8 mi
5:47 AM66 °FClear.No wind84%29.86 "Hg9 mi
4:47 AM66 °FClear.No wind84%29.85 "Hg9 mi
Weather by CustomWeather, © 2014

See weather overviewHow to use our weather pages